Weather History for Langley AFB, VA

Change the Weather History Date:

Wednesday, October 2, 2013

  Actual Average Record
Temperature  
Mean Temperature 72 °F -  
Max Temperature 82 °F 73 °F 90 °F (1977)
Min Temperature 61 °F 57 °F 42 °F (1947)
Cooling Degree Days 6    
Growing Degree Days 22 (Base 50)    
Moisture  
Dew Point 61 °F    
Average Humidity 74    
Maximum Humidity 99    
Minimum Humidity 48    
Precipitation  
Precipitation 0.00 in - - ()
Sea Level Pressure  
Sea Level Pressure 30.09 in    
Wind  
Wind Speed 5 mph (WSW)    
Max Wind Speed 8 mph    
Max Gust Speed -    
Visibility 10 miles    
Events      
Averages and records for this station are not official NWS values.
T = Trace of Precipitation, MM = Missing Value Source: NWS Daily Summary

Daily Weather History Graph

Daily Weather History Graph

Search for Another Location

Airport:

Trip Planner

Search our weather history database for the weather conditions in past years. The results will help you decide how hot, cold, wet, or windy it might be!

Date:

Astronomy

Oct. 02, 2013 Rise Set
Actual Time 7:01 AM EDT 6:46 PM EDT
Civil Twilight 6:35 AM EDT 7:12 PM EDT
Nautical Twilight 6:05 AM EDT 7:42 PM EDT
Astronomical Twilight 5:35 AM EDT 8:13 PM EDT
Moon 4:35 AM EDT (10/2) 5:19 PM EDT (10/2)
Length of Visible Light 12h 36m
Length of Day
11h 45m
Waning Crescent, 6% of the Moon is Illuminated
Oct 2
Waning Crescent
Oct 4
New
Oct 11
First Quarter
Oct 18
Full
Oct 26
Last Quarter

Hourly Weather History & Observations

Time (EDT) Temp. Heat Index Dew Point Humidity Pressure Visibility Wind Dir Wind Speed Gust Speed Precip Events Conditions
12:58 AM 66.0 °F - 60.6 °F 83% 30.07 in 10.0 mi SW 4.6 mph - N/A   Clear
1:58 AM 65.1 °F - 60.8 °F 86% 30.08 in 10.0 mi WSW 5.8 mph - N/A   Clear
2:58 AM 64.8 °F - 60.4 °F 86% 30.07 in 10.0 mi WSW 6.9 mph - N/A   Clear
3:58 AM 64.6 °F - 59.9 °F 85% 30.06 in 10.0 mi WSW 8.1 mph - N/A   Clear
4:58 AM 64.4 °F - 60.3 °F 86% 30.06 in 10.0 mi WSW 8.1 mph - N/A   Clear
5:58 AM 61.7 °F - 60.8 °F 97% 30.07 in 10.0 mi WSW 4.6 mph - N/A   Clear
6:58 AM 62.4 °F - 62.1 °F 99% 30.08 in 10.0 mi WSW 2.3 mph - N/A   Clear
7:58 AM 63.3 °F - 63.0 °F 99% 30.10 in 10.0 mi WSW 4.6 mph - N/A   Clear
8:58 AM 68.2 °F - 63.1 °F 84% 30.12 in 10.0 mi WNW 1.2 mph - N/A   Clear
9:58 AM 72.7 °F - 62.4 °F 70% 30.12 in 10.0 mi Variable 1.2 mph - N/A   Clear
10:58 AM 78.8 °F - 60.8 °F 54% 30.12 in 10.0 mi NNE 3.5 mph - N/A   Clear
11:58 AM 78.8 °F - 59.0 °F 51% 30.11 in 10.0 mi NE 4.6 mph - N/A   Clear
12:58 PM 80.6 °F 81.1 °F 59.0 °F 48% 30.11 in 10.0 mi NNE 6.9 mph - N/A   Clear
1:58 PM 80.6 °F 81.5 °F 60.8 °F 51% 30.09 in 10.0 mi NNE 6.9 mph - N/A   Clear
2:58 PM 82.4 °F 82.9 °F 60.8 °F 48% 30.08 in 10.0 mi East 8.1 mph - N/A   Clear
3:58 PM 82.4 °F 82.9 °F 60.8 °F 48% 30.06 in 10.0 mi NE 6.9 mph - N/A   Clear
4:58 PM 80.6 °F 81.5 °F 60.8 °F 51% 30.06 in 10.0 mi East 4.6 mph - N/A   Clear
5:58 PM 80.2 °F 81.3 °F 61.5 °F 53% 30.06 in 10.0 mi SSE 4.6 mph - N/A   Clear
6:58 PM 75.6 °F - 62.6 °F 64% 30.07 in 10.0 mi South 1.2 mph - N/A   Clear
7:58 PM 70.2 °F - 63.0 °F 78% 30.08 in 10.0 mi SSW 1.2 mph - N/A   Clear
8:58 PM 68.0 °F - 63.1 °F 84% 30.10 in 10.0 mi South 1.2 mph - N/A   Clear
9:58 PM 66.2 °F - 63.3 °F 90% 30.10 in 10.0 mi West 1.2 mph - N/A   Clear
10:58 PM 65.7 °F - 63.1 °F 92% 30.11 in 10.0 mi Calm Calm - N/A   Clear
11:58 PM 64.8 °F - 63.9 °F 97% 30.11 in 10.0 mi West 1.2 mph - N/A   Clear